Simultaneous Nadir Overpasses (SNOs) Predictions

Prediction of SNOs between LANDSAT-8 and METOP-B Satellite Orbit:

Table of predicted SNOs for the next 14.0 days since TLE Epoch: 2/3/2024
Index Date (LANDSAT-8) Time (LANDSAT-8) Lat,Lon (LANDSAT-8) SZA (LANDSAT-8 ) Date (METOP-B) Time (METOP-B) Lat,Lon (METOP-B) SZA (METOP-B ) Distance(km) Time Diff (sec)
1 02/04/2024 10:55:21 81.27, 58.28 99.39 02/04/2024 10:54:10 81.27, 58.09 99.34 3.22 71
2 02/04/2024 11:44:47 -81.29,-133.76 80.59 02/04/2024 11:44:49 -81.29,-133.77 80.59 0.22 2
3 02/07/2024 06:29:37 81.28, 124.75 98.53 02/07/2024 06:28:37 81.27, 124.56 98.49 3.08 60
4 02/07/2024 07:19:03 -81.29, -67.28 81.44 02/07/2024 07:19:16 -81.29, -67.27 81.43 0.14 13
5 02/10/2024 02:03:51 81.29,-168.60 97.67 02/10/2024 02:03:02 81.28,-168.65 97.65 0.91 49
6 02/10/2024 02:53:18 -81.29, -0.98 82.35 02/10/2024 02:53:42 -81.30, -0.84 82.32 2.61 24
7 02/12/2024 21:38:06 81.29,-102.13 96.76 02/12/2024 21:37:29 81.28,-102.32 96.72 3.21 37
8 02/12/2024 22:27:33 -81.29, 65.50 83.26 02/12/2024 22:28:09 -81.29, 65.52 83.24 0.71 36
9 02/15/2024 17:12:21 81.28, -35.85 95.79 02/15/2024 17:11:55 81.29, -35.67 95.80 3.21 26



Historial Predications of SNOs between LANDSAT-8 and METOP-B
